Time,TemperatureF,DewpointF,PressureIn,WindDirection,WindDirectionDegrees,WindSpeedMPH,WindSpeedGustMPH,Humidity,HourlyPrecipIn,Conditions,Clouds,dailyrainin,SoftwareType,DateUTC
2013-08-08 00:00:00,73.0,69.0,30.07,South,186,11.0,16.0,89,0.00,,,-99.99,,2013-08-08 04:00:00,
2013-08-08 00:33:00,73.0,69.0,30.07,South,186,11.0,16.0,89,0.00,,,-99.99,,2013-08-08 04:33:00,
2013-08-08 00:44:00,73.0,69.0,30.07,South,186,11.0,16.0,89,0.00,,,-99.99,,2013-08-08 04:44:00,
2013-08-08 00:53:00,73.0,69.0,30.07,South,186,11.0,16.0,89,0.00,,,-99.99,,2013-08-08 04:53:00,
2013-08-08 01:00:00,73.0,69.0,30.06,South,182,12.0,17.0,87,0.00,,,-99.99,,2013-08-08 05:00:00,
2013-08-08 01:33:00,73.0,69.0,30.06,South,182,12.0,17.0,87,0.00,,,-99.99,,2013-08-08 05:33:00,
2013-08-08 01:43:00,73.0,69.0,30.06,South,182,12.0,17.0,87,0.00,,,-99.99,,2013-08-08 05:43:00,
2013-08-08 01:52:00,73.0,69.0,30.06,South,182,12.0,17.0,87,0.00,,,-99.99,,2013-08-08 05:52:00,
2013-08-08 02:00:00,72.0,70.0,30.05,South,182,13.0,-999.0,92,-99.99,,,-99.99,,2013-08-08 06:00:00,
2013-08-08 02:32:00,72.0,70.0,30.05,South,182,13.0,-999.0,92,-99.99,,,-99.99,,2013-08-08 06:32:00,
2013-08-08 02:43:00,72.0,70.0,30.05,South,182,13.0,-999.0,92,-99.99,,,-99.99,,2013-08-08 06:43:00,
2013-08-08 02:52:00,72.0,70.0,30.05,South,182,13.0,-999.0,92,-99.99,,,-99.99,,2013-08-08 06:52:00,
2013-08-08 03:00:00,72.0,70.0,30.04,South,191,14.0,20.0,94,0.00,,,-99.99,,2013-08-08 07:00:00,
2013-08-08 03:32:00,72.0,70.0,30.04,South,191,14.0,20.0,94,0.00,,,-99.99,,2013-08-08 07:32:00,
2013-08-08 03:43:00,72.0,70.0,30.04,South,191,14.0,20.0,94,0.00,,,-99.99,,2013-08-08 07:43:00,
2013-08-08 03:53:00,72.0,70.0,30.04,South,191,14.0,20.0,94,0.00,,,-99.99,,2013-08-08 07:53:00,
2013-08-08 04:00:00,72.0,70.0,30.05,SSW,198,6.0,15.0,95,0.17,,,-99.99,,2013-08-08 08:00:00,
2013-08-08 04:43:00,72.0,70.0,30.05,SSW,198,6.0,15.0,95,0.17,,,-99.99,,2013-08-08 08:43:00,
2013-08-08 04:53:00,72.0,70.0,30.05,SSW,198,6.0,15.0,95,0.17,,,-99.99,,2013-08-08 08:53:00,
2013-08-08 05:00:00,71.0,70.0,30.05,SSE,166,10.0,16.0,96,0.27,,,-99.99,,2013-08-08 09:00:00,
2013-08-08 05:32:00,71.0,70.0,30.05,SSE,166,10.0,16.0,96,0.27,,,-99.99,,2013-08-08 09:32:00,
2013-08-08 05:43:00,71.0,70.0,30.05,SSE,166,10.0,16.0,96,0.27,,,-99.99,,2013-08-08 09:43:00,
2013-08-08 05:53:00,71.0,70.0,30.05,SSE,166,10.0,16.0,96,0.27,,,-99.99,,2013-08-08 09:53:00,
2013-08-08 06:00:00,71.0,70.0,30.05,SSW,209,5.0,13.0,97,0.42,,,-99.99,,2013-08-08 10:00:00,
2013-08-08 06:33:00,71.0,70.0,30.05,SSW,209,5.0,13.0,97,0.42,,,-99.99,,2013-08-08 10:33:00,
2013-08-08 06:43:00,71.0,70.0,30.05,SSW,209,5.0,13.0,97,0.42,,,-99.99,,2013-08-08 10:43:00,
2013-08-08 06:52:00,71.0,70.0,30.05,SSW,209,5.0,13.0,97,0.42,,,-99.99,,2013-08-08 10:52:00,
2013-08-08 07:00:00,71.0,70.0,30.06,SSE,161,4.0,8.0,98,0.01,,,-99.99,,2013-08-08 11:00:00,
2013-08-08 07:32:00,71.0,70.0,30.06,SSE,161,4.0,8.0,98,0.01,,,-99.99,,2013-08-08 11:32:00,
2013-08-08 07:43:00,71.0,70.0,30.06,SSE,161,4.0,8.0,98,0.01,,,-99.99,,2013-08-08 11:43:00,
2013-08-08 07:52:00,71.0,70.0,30.06,SSE,161,4.0,8.0,98,0.01,,,-99.99,,2013-08-08 11:52:00,
2013-08-08 08:00:00,72.0,71.0,30.06,SSW,195,4.0,8.0,96,0.00,,,-99.99,,2013-08-08 12:00:00,
2013-08-08 08:32:00,72.0,71.0,30.06,SSW,195,4.0,8.0,96,0.00,,,-99.99,,2013-08-08 12:32:00,
2013-08-08 08:43:00,72.0,71.0,30.06,SSW,195,4.0,8.0,96,0.00,,,-99.99,,2013-08-08 12:43:00,
2013-08-08 08:53:00,72.0,71.0,30.06,SSW,195,4.0,8.0,96,0.00,,,-99.99,,2013-08-08 12:53:00,
2013-08-08 09:00:00,73.0,71.0,30.06,WSW,250,4.0,7.0,94,0.00,,,-99.99,,2013-08-08 13:00:00,
2013-08-08 09:32:00,73.0,71.0,30.06,WSW,250,4.0,7.0,94,0.00,,,-99.99,,2013-08-08 13:32:00,
2013-08-08 09:43:00,73.0,71.0,30.06,WSW,250,4.0,7.0,94,0.00,,,-99.99,,2013-08-08 13:43:00,
2013-08-08 09:53:00,73.0,71.0,30.06,WSW,250,4.0,7.0,94,0.00,,,-99.99,,2013-08-08 13:53:00,
2013-08-08 10:00:00,76.0,73.0,30.06,SSW,205,8.0,11.0,89,0.00,,,-99.99,,2013-08-08 14:00:00,
2013-08-08 10:43:00,76.0,73.0,30.06,SSW,205,8.0,11.0,89,0.00,,,-99.99,,2013-08-08 14:43:00,
2013-08-08 10:53:00,76.0,73.0,30.06,SSW,205,8.0,11.0,89,0.00,,,-99.99,,2013-08-08 14:53:00,
2013-08-08 11:00:00,78.0,73.0,30.06,WSW,251,6.0,15.0,84,0.00,,,-99.99,,2013-08-08 15:00:00,
2013-08-08 11:33:00,78.0,73.0,30.06,WSW,251,6.0,15.0,84,0.00,,,-99.99,,2013-08-08 15:33:00,
2013-08-08 11:43:00,78.0,73.0,30.06,WSW,251,6.0,15.0,84,0.00,,,-99.99,,2013-08-08 15:43:00,
2013-08-08 11:53:00,78.0,73.0,30.06,WSW,251,6.0,15.0,84,0.00,,,-99.99,,2013-08-08 15:53:00,
2013-08-08 12:00:00,76.0,72.0,30.05,SE,143,9.0,14.0,89,0.00,,,-99.99,,2013-08-08 16:00:00,
2013-08-08 12:32:00,76.0,72.0,30.05,SE,143,9.0,14.0,89,0.00,,,-99.99,,2013-08-08 16:32:00,
2013-08-08 12:42:00,76.0,72.0,30.05,SE,143,9.0,14.0,89,0.00,,,-99.99,,2013-08-08 16:42:00,
2013-08-08 12:52:00,76.0,72.0,30.05,SE,143,9.0,14.0,89,0.00,,,-99.99,,2013-08-08 16:52:00,
2013-08-08 13:00:00,78.0,71.0,30.03,South,182,12.0,19.0,81,0.00,,,-99.99,,2013-08-08 17:00:00,
2013-08-08 13:32:00,78.0,71.0,30.03,South,182,12.0,19.0,81,0.00,,,-99.99,,2013-08-08 17:32:00,
2013-08-08 13:43:00,78.0,71.0,30.03,South,182,12.0,19.0,81,0.00,,,-99.99,,2013-08-08 17:43:00,
2013-08-08 13:52:00,78.0,71.0,30.03,South,182,12.0,19.0,81,0.00,,,-99.99,,2013-08-08 17:52:00,
2013-08-08 14:00:00,77.0,71.0,30.04,South,176,12.0,18.0,83,0.00,,,-99.99,,2013-08-08 18:00:00,
2013-08-08 14:32:00,77.0,71.0,30.04,South,176,12.0,18.0,83,0.00,,,-99.99,,2013-08-08 18:32:00,
2013-08-08 14:43:00,77.0,71.0,30.04,South,176,12.0,18.0,83,0.00,,,-99.99,,2013-08-08 18:43:00,
2013-08-08 14:53:00,77.0,71.0,30.04,South,176,12.0,18.0,83,0.00,,,-99.99,,2013-08-08 18:53:00,
2013-08-08 15:00:00,74.0,71.0,30.04,South,169,12.0,19.0,89,0.00,,,-99.99,,2013-08-08 19:00:00,
2013-08-08 15:32:00,74.0,71.0,30.04,South,169,12.0,19.0,89,0.00,,,-99.99,,2013-08-08 19:32:00,
2013-08-08 15:43:00,74.0,71.0,30.04,South,169,12.0,19.0,89,0.00,,,-99.99,,2013-08-08 19:43:00,
2013-08-08 15:59:00,74.0,71.0,30.04,South,169,12.0,19.0,89,0.00,,,-99.99,,2013-08-08 19:59:00,
2013-08-08 16:00:00,72.0,70.0,30.03,South,191,23.0,26.0,91,0.84,,,-99.99,,2013-08-08 20:00:00,
2013-08-08 16:32:00,72.0,70.0,30.03,South,191,23.0,26.0,91,0.84,,,-99.99,,2013-08-08 20:32:00,
2013-08-08 16:42:00,72.0,70.0,30.03,South,191,23.0,26.0,91,0.84,,,-99.99,,2013-08-08 20:42:00,
2013-08-08 16:53:00,72.0,70.0,30.03,South,191,23.0,26.0,91,0.84,,,-99.99,,2013-08-08 20:53:00,
2013-08-08 17:00:00,73.0,71.0,30.03,SSW,203,7.0,24.0,95,0.66,,,-99.99,,2013-08-08 21:00:00,
2013-08-08 17:34:00,73.0,71.0,30.03,SSW,203,7.0,24.0,95,0.66,,,-99.99,,2013-08-08 21:34:00,
2013-08-08 17:46:00,73.0,71.0,30.03,SSW,203,7.0,24.0,95,0.66,,,-99.99,,2013-08-08 21:46:00,
2013-08-08 17:57:00,73.0,71.0,30.03,SSW,203,7.0,24.0,95,0.66,,,-99.99,,2013-08-08 21:57:00,
2013-08-08 18:00:00,73.0,70.0,30.02,SSE,161,15.0,20.0,91,0.00,,,-99.99,,2013-08-08 22:00:00,
2013-08-08 18:49:00,73.0,70.0,30.02,SSE,161,15.0,20.0,91,0.00,,,-99.99,,2013-08-08 22:49:00,
2013-08-08 18:58:00,73.0,70.0,30.02,SSE,161,15.0,20.0,91,0.00,,,-99.99,,2013-08-08 22:58:00,
2013-08-08 19:00:00,73.0,70.0,30.02,South,178,12.0,21.0,92,0.00,,,-99.99,,2013-08-08 23:00:00,
2013-08-08 19:37:00,73.0,70.0,30.02,South,178,12.0,21.0,92,0.00,,,-99.99,,2013-08-08 23:37:00,
2013-08-08 19:50:00,73.0,70.0,30.02,South,178,12.0,21.0,92,0.00,,,-99.99,,2013-08-08 23:50:00,
2013-08-08 20:00:00,76.0,72.0,30.03,SSW,194,11.0,18.0,89,0.00,,,-99.99,,2013-08-09 00:00:00,
2013-08-08 20:48:00,76.0,72.0,30.03,SSW,194,11.0,18.0,89,0.00,,,-99.99,,2013-08-09 00:48:00,
2013-08-08 20:57:00,76.0,72.0,30.03,SSW,194,11.0,18.0,89,0.00,,,-99.99,,2013-08-09 00:57:00,
2013-08-08 21:00:00,75.0,71.0,30.03,South,182,13.0,19.0,87,0.00,,,-99.99,,2013-08-09 01:00:00,
2013-08-08 21:47:00,75.0,71.0,30.03,South,182,13.0,19.0,87,0.00,,,-99.99,,2013-08-09 01:47:00,
2013-08-08 22:00:00,75.0,71.0,30.05,South,190,9.0,-999.0,88,-99.99,,,-99.99,,2013-08-09 02:00:00,
2013-08-08 22:39:00,75.0,71.0,30.05,South,190,9.0,-999.0,88,-99.99,,,-99.99,,2013-08-09 02:39:00,
2013-08-08 22:47:00,75.0,71.0,30.05,South,190,9.0,-999.0,88,-99.99,,,-99.99,,2013-08-09 02:47:00,
2013-08-08 22:57:00,75.0,71.0,30.05,South,190,9.0,-999.0,88,-99.99,,,-99.99,,2013-08-09 02:57:00,
2013-08-08 23:00:00,72.0,70.0,30.04,South,182,9.0,15.0,95,0.00,,,-99.99,,2013-08-09 03:00:00,
2013-08-08 23:36:00,72.0,70.0,30.04,South,182,9.0,15.0,95,0.00,,,-99.99,,2013-08-09 03:36:00,
2013-08-08 23:47:00,72.0,70.0,30.04,South,182,9.0,15.0,95,0.00,,,-99.99,,2013-08-09 03:47:00,
2013-08-08 23:56:00,72.0,70.0,30.04,South,182,9.0,15.0,95,0.00,,,-99.99,,2013-08-09 03:56:00,